Weather History for Deering, AK

Change the Weather History Date:

Saturday, February 18, 2012

  Actual Average (PAOT) Record (PAOT)
Temperature  
Mean Temperature 0 °F -  
Max Temperature 8 °F - 35 °F (1944)
Min Temperature -9 °F -7 °F -51 °F (1964)
Degree Days  
Heating Degree Days 66 65  
Month to date heating degree days 1193  
Since 1 July heating degree days 9592  
Cooling Degree Days 0    
Month to date cooling degree days  
Year to date cooling degree days  
Moisture  
Dew Point -3 °F    
Average Humidity 86    
Maximum Humidity 100    
Minimum Humidity 78    
Precipitation  
Precipitation 0.00 in 0.03 in 0.64 in (2009)
Month to date precipitation 0.41  
Year to date precipitation 1.03  
Snow  
Snow 0.00 in 0.40 in 7.00 in (2009)
Month to date snowfall 6.0  
Since 1 July snowfall 44.0  
Snow Depth -    
Sea Level Pressure  
Sea Level Pressure 29.58 in    
Wind  
Wind Speed 3 mph (SW)    
Max Wind Speed 9 mph    
Max Gust Speed -    
Visibility 8 miles    
Events Fog    
T = Trace of Precipitation, MM = Missing Value Source: NWS Daily Summary

Daily Weather History Graph

Daily Weather History Graph

Search for Another Location

Airport:

Trip Planner

Search our weather history database for the weather conditions in past years. The results will help you decide how hot, cold, wet, or windy it might be!

Date:

Astronomy

Feb. 18, 2012 Rise Set
Actual Time 9:46 AM AKST 6:25 PM AKST
Civil Twilight 8:51 AM AKST 7:19 PM AKST
Nautical Twilight 7:51 AM AKST 8:19 PM AKST
Astronomical Twilight 6:52 AM AKST 9:19 PM AKST
Moon 8:46 AM AKST (2/18) 2:29 PM AKST (2/18)
Length of Visible Light 10h 28m
Length of Day
8h 38m
Waning Crescent, 10% of the Moon is Illuminated
Feb 18
Waning Crescent
Feb 21
New
Feb 29
First Quarter
Mar 8
Full
Mar 14
Last Quarter

Hourly Weather History & Observations

Time (AKST) Temp. Windchill Dew Point Humidity Pressure Visibility Wind Dir Wind Speed Gust Speed Precip Events Conditions
12:53 AM 8.1 °F - 3.9 °F 83% 29.62 in 10.0 mi Calm Calm - N/A   Overcast
1:41 AM 6.8 °F -0.1 °F 3.2 °F 85% 29.62 in 10.0 mi SSW 3.5 mph - N/A   Overcast
1:53 AM 7.0 °F 0.1 °F 3.9 °F 87% 29.62 in 10.0 mi SW 3.5 mph - N/A   Overcast
3:04 AM 6.8 °F -0.1 °F 3.2 °F 85% 29.61 in 10.0 mi SSW 3.5 mph - N/A   Overcast
3:53 AM 6.1 °F - 1.9 °F 83% 29.61 in 10.0 mi Calm Calm - N/A   Overcast
4:01 AM 3.2 °F - 1.4 °F 92% 29.61 in 10.0 mi Calm Calm - N/A   Overcast
4:53 AM 5.0 °F - 1.0 °F 84% 29.61 in 10.0 mi Calm Calm - N/A   Overcast
5:35 AM 1.4 °F -6.2 °F -2.2 °F 85% 29.60 in 10.0 mi SSW 3.5 mph - N/A   Overcast
5:44 AM -0.4 °F -10.4 °F -2.2 °F 92% 29.59 in 6.0 mi SSW 4.6 mph - N/A   Overcast
5:47 AM -0.4 °F -10.4 °F -2.2 °F 92% 29.59 in 1.5 mi SSW 4.6 mph - N/A   Overcast
5:53 AM 1.0 °F -6.7 °F -2.0 °F 87% 29.60 in 0.5 mi WSW 3.5 mph - N/A Fog Light Freezing Fog
6:09 AM -0.4 °F - -0.4 °F 100% 29.59 in 1.0 mi Calm Calm - N/A   Mist
6:30 AM -0.4 °F -10.4 °F -2.2 °F 92% 29.59 in 0.5 mi WSW 4.6 mph - N/A Fog Light Freezing Fog
6:53 AM -0.9 °F -14.1 °F -2.9 °F 91% 29.59 in 0.5 mi SSW 6.9 mph - N/A Fog Light Freezing Fog
7:15 AM -0.4 °F -10.4 °F -2.2 °F 92% 29.58 in 1.8 mi SW 4.6 mph - N/A   Overcast
7:18 AM -0.4 °F -12.0 °F -2.2 °F 92% 29.58 in 3.0 mi SW 5.8 mph - N/A   Overcast
7:53 AM 3.0 °F -8.0 °F 1.0 °F 91% 29.58 in 4.0 mi SW 5.8 mph - N/A   Overcast
8:13 AM 3.2 °F -4.2 °F 1.4 °F 92% 29.58 in 10.0 mi SW 3.5 mph - N/A   Overcast
9:53 AM -2.0 °F -10.1 °F -6.0 °F 83% 29.57 in 10.0 mi West 3.5 mph - N/A   Scattered Clouds
10:53 AM -2.0 °F - -4.0 °F 91% 29.57 in 4.0 mi Calm Calm - N/A   Overcast
11:53 AM -2.9 °F -13.3 °F -7.1 °F 82% 29.57 in 10.0 mi WSW 4.6 mph - N/A   Clear
12:53 PM -2.0 °F - -6.0 °F 83% 29.58 in 10.0 mi Calm Calm - N/A   Clear
1:51 PM -2.2 °F -12.5 °F -5.8 °F 85% 29.58 in 10.0 mi South 4.6 mph - N/A   Mostly Cloudy
1:53 PM -0.9 °F -8.9 °F -6.0 °F 79% 29.58 in 10.0 mi South 3.5 mph - N/A   Mostly Cloudy
2:03 PM -0.4 °F - -5.8 °F 78% 29.57 in 10.0 mi Calm Calm - N/A   Overcast
2:33 PM -0.4 °F -8.3 °F -4.0 °F 85% 29.57 in 10.0 mi SSW 3.5 mph - N/A   Overcast
2:53 PM -0.0 °F - -2.9 °F 88% 29.57 in 10.0 mi Calm Calm - N/A   Mostly Cloudy
3:02 PM 1.4 °F -6.2 °F -2.2 °F 85% 29.57 in 10.0 mi SSW 3.5 mph - N/A   Mostly Cloudy
3:25 PM 1.4 °F -6.2 °F -2.2 °F 85% 29.57 in 10.0 mi SW 3.5 mph - N/A   Overcast
3:36 PM 3.2 °F -6.2 °F -0.4 °F 85% 29.56 in 10.0 mi SSW 4.6 mph - N/A   Overcast
3:53 PM 3.0 °F - -0.0 °F 87% 29.56 in 10.0 mi Calm Calm - N/A   Overcast
5:53 PM -0.0 °F - -4.0 °F 83% 29.54 in 10.0 mi Calm Calm - N/A   Clear
6:53 PM -2.0 °F -13.9 °F -6.0 °F 83% 29.55 in 10.0 mi NNE 5.8 mph - N/A   Clear
7:53 PM -6.0 °F - -9.0 °F 87% 29.54 in 10.0 mi Calm Calm - N/A   Partly Cloudy
8:53 PM -8.0 °F -19.2 °F -13.0 °F 79% 29.54 in 10.0 mi SSW 4.6 mph - N/A   Clear
9:53 PM -7.1 °F -23.9 °F -11.0 °F 83% 29.53 in 10.0 mi SSW 9.2 mph - N/A   Clear
10:53 PM -9.0 °F -22.3 °F -13.0 °F 83% 29.53 in 10.0 mi SSW 5.8 mph - N/A   Clear
11:53 PM -8.0 °F -19.2 °F -11.0 °F 86% 29.52 in 10.0 mi SW 4.6 mph - N/A   Partly Cloudy